リード彗星

P/2005 S3 ( Read )

English version
Home page
Updated on February 4, 2007

---------------------------------------------------------------------

・ プロフィール

発見日 2005年9月30日
発見光度 19.2等
発見者 Michael T. Read (Spacewatch)

・ 軌道要素

Epoch 2006 Jan. 25.0 TT = JDT 2453760.5
T 2006 Jan. 8.57032 TT                                  MPC
q   2.8424383            (2000.0)            P               Q
n   0.09081348     Peri.  140.45737     +0.58777533     -0.80675378
a   4.9019534      Node   273.46036     +0.72605186     +0.55903935
e   0.4201417      Incl.    3.47877     +0.35688774     +0.19137225
P  10.85

・ 光度変化

        m1 = 11.5 + 5 logΔ + 10.0 log r

---------------------------------------------------------------------

軌道要素はM.P.E.C. 2005-V90に掲載されたものです。
光度グラフはComet for Windowsで作成したものです。

---------------------------------------------------------------------

Copyright(C) Seiichi Yoshida (comet@aerith.net). All rights reserved.